Wind_Speed
50 49 48 47 46 45 42 38 35 35 34 32 30 29 27 25 24 23 20 19 18 18 17 16 16 16 16 16 16 16 15 15 16 16 16 16 17 17 17 18 18 19 19 19 19 19 19 19 19
50 50 50 50 50 47 42 38 37 38 36 34 32 31 29 28 25 23 22 21 20 19 18 17 17 17 16 16 16 16 16 16 16 16 16 17 17 18 18 18 18 19 19 19 19 20 20 20 20
51 51 52 53 52 47 41 38 39 40 38 36 34 33 31 29 27 24 23 22 21 20 19 18 18 17 16 16 16 15 15 15 16 16 16 17 17 17 18 18 18 18 18 18 19 20 20 20 20
51 52 54 55 53 45 40 39 42 41 39 37 36 34 32 30 27 25 24 23 23 21 20 19 18 17 16 16 16 16 16 16 16 17 17 17 18 18 18 18 18 18 19 19 20 20 20 20 20
52 53 55 56 51 44 41 41 42 42 40 38 37 35 33 31 29 27 25 24 23 22 21 20 19 19 18 17 17 17 17 18 18 18 18 19 19 19 19 19 19 20 20 20 20 20 20 20 20
53 54 55 55 49 43 41 42 43 42 40 39 37 36 34 32 29 28 26 25 24 23 22 22 21 21 20 19 19 19 19 19 19 20 20 20 20 20 20 20 20 20 20 20 20 20 21 21 21
54 54 53 51 47 44 41 42 43 42 41 39 38 36 35 33 30 29 27 26 24 24 24 24 23 23 22 21 21 21 21 21 20 20 20 20 20 20 20 20 20 20 21 21 21 21 21 21 21
54 54 54 51 48 44 42 43 43 43 42 41 39 37 36 33 31 30 28 27 26 25 25 26 26 25 25 24 23 22 22 21 21 20 20 20 20 20 20 20 20 20 21 21 21 21 21 22 22
54 55 54 50 47 44 43 44 45 44 43 42 40 37 36 34 32 31 29 28 28 28 28 28 28 28 27 26 25 24 23 22 21 21 20 20 20 20 20 20 20 20 20 20 21 21 21 21 22
56 55 51 50 48 46 45 46 46 46 45 43 41 38 37 35 33 31 31 30 30 31 31 30 30 29 29 28 26 25 24 23 22 21 21 20 20 20 20 20 20 20 20 21 21 21 21 21 21
56 53 52 50 49 48 47 48 48 47 46 45 42 40 38 36 34 33 32 32 32 32 32 31 31 30 30 29 28 26 25 24 23 22 22 21 21 20 20 20 20 20 21 21 21 21 22 21 22
54 54 53 51 50 50 49 49 49 49 48 46 44 42 40 38 36 35 34 34 34 33 32 32 32 31 31 30 29 28 27 26 25 24 23 22 22 21 21 21 21 21 21 22 22 22 22 22 22
53 53 54 53 51 51 50 50 50 49 49 47 45 43 41 39 37 36 35 35 34 33 33 33 33 32 32 31 31 29 29 28 27 26 25 24 23 23 22 22 22 23 23 23 23 23 23 23 23
52 53 53 53 52 51 50 51 51 49 49 49 47 45 43 41 39 37 36 35 34 34 33 33 33 33 33 32 32 31 31 30 29 27 27 26 25 25 24 24 24 24 24 24 24 24 24 25 25
53 54 54 53 52 51 50 50 51 50 50 49 48 46 44 42 40 38 37 36 35 35 35 34 34 34 34 34 33 33 32 32 31 30 29 29 28 27 27 27 26 26 26 26 26 26 26 27 27
52 54 54 52 51 50 50 49 50 51 50 49 49 47 45 43 41 39 38 37 36 36 35 35 35 35 35 35 35 35 34 34 33 32 31 31 31 30 30 29 29 29 29 29 29 29 29 29 29
51 52 52 51 50 49 49 48 48 50 50 49 49 48 46 43 41 40 38 37 36 36 36 36 37 37 37 37 37 37 36 36 35 35 34 34 34 34 33 32 32 32 32 31 31 31 31 31 31
46 48 49 50 49 48 48 47 47 48 50 49 49 48 46 44 42 40 39 38 37 37 37 37 37 38 38 39 39 39 38 38 38 37 37 37 37 37 36 35 35 35 35 34 34 34 34 34 34
44 46 47 48 48 48 47 47 47 47 48 49 48 48 46 44 42 41 40 39 38 38 38 38 38 39 40 40 40 40 40 40 40 40 40 40 39 39 38 38 38 38 38 38 38 37 37 37 37
42 44 45 46 46 46 47 47 46 47 47 47 47 47 47 45 43 42 41 40 39 38 38 39 39 40 40 41 41 42 42 43 42 42 42 41 41 41 41 41 41 41 41 41 40 40 40 40 40
41 42 43 43 43 43 44 46 46 46 47 47 47 47 46 46 44 43 42 40 39 39 39 39 39 40 41 42 42 43 44 44 43 43 43 43 44 44 44 44 44 44 44 44 44 44 44 44 43
39 40 41 41 42 42 42 44 45 45 46 47 46 46 46 45 44 43 42 41 40 40 39 39 40 40 41 42 43 44 44 44 44 44 44 45 46 46 47 47 47 47 47 47 47 47 47 47 46
35 36 37 38 40 41 41 42 42 43 43 45 45 45 45 44 44 43 42 42 41 40 40 40 40 41 41 42 43 44 44 44 45 45 45 46 47 48 49 49 50 50 50 50 50 50 50 49 49
32 33 33 35 37 39 40 40 39 40 41 42 43 44 43 43 43 42 42 41 41 40 40 40 40 41 41 42 43 43 43 44 45 45 46 47 48 49 50 51 52 52 52 53 53 53 53 53 52
30 30 30 32 35 37 37 37 37 36 37 39 40 41 41 41 41 41 41 41 40 40 39 39 40 40 41 41 42 42 43 44 45 45 46 47 48 49 51 52 53 54 55 55 56 56 55 55 54
29 29 30 30 31 32 33 34 34 33 34 35 37 38 38 39 39 40 40 40 40 40 39 40 40 40 40 40 41 42 43 44 44 46 47 48 49 51 52 54 56 57 58 58 58 58 58 57 57
27 27 28 28 28 29 30 31 31 30 31 32 33 34 35 35 36 37 37 38 38 38 38 38 38 38 38 39 40 41 42 43 44 46 47 49 51 53 55 57 58 59 60 60 61 61 60 59 58
26 25 26 26 25 25 27 27 27 27 28 29 31 32 32 33 33 34 34 35 35 36 36 36 36 36 37 38 39 40 42 43 44 46 48 50 52 54 56 58 59 60 61 61 61 61 60 59 58
26 25 25 24 24 23 24 25 24 25 27 28 29 30 30 31 31 31 32 32 33 33 33 34 34 35 37 38 39 41 42 43 45 47 49 51 53 55 56 58 59 60 60 60 58 57 56 55 55
23 23 24 24 23 23 22 22 23 24 25 26 27 27 28 28 29 30 30 30 31 31 32 33 34 35 36 37 39 40 41 43 45 47 49 51 52 53 55 56 57 57 57 57 56 54 54 53 52
Wind_Direction
225 224 223 222 222 221 220 219 221 223 223 223 224 226 228 229 231 235 236 237 241 243 246 249 251 254 256 256 256 258 260 262 265 269 271 273 276 278 279 280 281 281 280 280 281 281 281 281 281
225 224 224 222 222 221 219 220 222 225 224 224 224 226 228 229 231 235 236 238 241 244 247 249 252 255 256 257 259 260 261 263 266 269 271 274 277 280 281 282 283 283 283 282 283 283 283 284 284
224 224 224 223 222 220 218 220 223 225 225 225 225 226 228 230 230 233 236 239 242 244 247 250 253 254 255 256 259 261 263 265 268 271 274 277 280 282 283 284 285 287 286 286 286 286 287 287 286
223 223 224 224 222 218 217 219 223 224 224 224 225 226 228 230 231 232 235 238 241 244 247 250 253 253 254 256 260 263 266 268 270 273 276 280 283 284 285 286 287 288 289 288 288 288 288 288 287
223 223 224 223 221 216 215 218 222 223 223 223 224 226 227 229 230 231 233 236 240 243 247 251 254 254 255 257 261 266 269 271 273 276 279 281 283 285 287 287 288 289 290 289 289 289 289 289 289
223 223 224 223 220 215 214 217 221 223 222 222 222 224 226 227 228 229 231 234 237 242 247 251 254 257 258 260 263 267 270 273 275 277 279 281 283 285 286 287 288 289 290 289 289 289 290 290 290
224 223 224 223 220 215 214 216 219 221 221 221 221 222 224 225 225 227 229 232 236 241 247 251 255 258 261 263 265 267 270 273 275 277 279 280 282 284 286 287 288 290 291 291 291 291 291 292 291
223 223 223 222 218 214 212 215 218 220 220 220 220 220 222 223 224 225 228 232 236 241 246 251 255 259 262 263 265 268 270 272 274 276 277 279 281 283 285 287 288 290 292 292 293 293 293 293 293
222 223 222 221 219 213 211 214 217 219 220 220 219 220 222 223 224 226 229 233 237 241 246 250 255 258 262 264 265 267 268 270 272 274 276 278 281 283 285 287 288 290 292 293 294 295 295 295 295
222 223 221 221 218 214 212 214 217 219 221 221 220 219 222 224 225 227 230 233 237 241 244 248 253 256 260 262 264 265 267 268 270 272 274 277 280 282 284 287 289 290 292 293 294 295 296 295 295
221 221 221 221 219 216 214 215 217 219 222 222 223 221 223 225 227 229 231 234 237 241 244 247 251 254 257 259 261 263 265 266 268 271 273 275 278 280 282 285 288 289 291 293 294 296 296 296 295
221 220 221 221 220 218 216 215 218 220 222 224 225 225 225 227 229 231 232 234 237 240 243 246 249 251 253 256 258 260 262 264 266 269 272 274 277 279 281 283 285 287 289 291 292 293 294 294 295
220 220 221 221 221 220 218 216 218 220 223 225 227 228 228 228 230 232 234 235 238 240 242 245 247 249 251 254 256 259 261 263 266 268 271 273 275 276 278 280 283 284 286 288 290 291 292 293 294
219 219 220 221 221 220 219 217 217 220 224 226 228 229 230 231 232 233 234 236 237 239 241 243 245 248 250 253 256 259 261 263 265 267 269 271 273 275 276 277 280 282 284 286 287 289 290 291 292
218 219 220 220 220 221 221 219 218 220 225 227 228 230 231 232 233 233 233 235 237 239 241 243 246 249 251 254 256 258 261 263 264 266 267 270 272 274 275 276 278 279 281 283 284 286 288 289 290
217 218 219 219 220 221 222 220 219 220 224 227 229 231 232 233 234 233 233 234 236 239 242 244 247 250 252 254 256 257 259 262 264 266 268 269 271 272 273 274 275 277 279 280 282 283 284 286 288
216 217 219 220 221 222 223 221 221 222 224 228 230 231 232 234 234 233 233 235 237 239 242 245 248 251 253 255 257 258 260 263 265 266 268 269 269 270 271 272 274 276 277 279 280 280 281 283 285
216 217 218 220 221 223 223 222 221 223 224 227 230 232 233 233 234 234 234 235 237 240 243 246 248 251 254 256 258 260 262 264 265 266 266 267 268 269 271 272 273 275 276 277 278 278 279 281 283
215 216 217 220 221 222 223 223 222 223 225 227 230 232 234 235 235 236 236 237 239 241 244 246 249 251 254 256 258 260 261 262 263 265 266 267 268 270 271 271 272 273 274 275 276 277 278 279 281
214 215 217 219 220 222 223 223 223 224 225 227 230 232 235 236 238 239 239 239 240 242 245 247 250 252 254 256 258 259 260 262 263 265 267 268 269 270 270 270 271 272 273 274 275 275 277 278 279
213 215 218 220 221 222 223 224 224 224 226 227 230 233 235 237 239 241 242 243 243 245 247 249 251 254 255 257 258 259 261 263 264 265 266 266 267 267 268 269 270 271 272 273 274 274 276 277 278
213 214 218 220 221 223 223 225 225 226 227 228 230 233 236 238 241 243 245 246 247 248 250 251 253 254 255 256 258 259 261 262 263 263 264 265 266 268 269 269 270 271 271 272 273 274 274 275 277
211 213 217 219 222 224 225 227 226 228 229 229 231 233 236 239 242 244 246 248 249 250 252 253 254 255 256 257 259 260 261 262 263 264 265 266 267 268 269 269 269 270 270 271 271 272 273 274 274
210 213 216 219 221 224 225 228 229 229 230 231 232 234 237 240 242 245 246 248 250 251 252 254 255 256 257 258 259 260 262 263 264 265 266 266 267 268 268 269 269 270 270 270 270 271 271 271 272
207 210 213 216 219 223 224 228 230 229 230 232 233 235 237 240 242 245 246 248 250 252 254 255 255 257 258 259 260 261 263 264 265 266 267 268 268 268 268 269 269 269 269 269 269 269 269 270 270
206 207 210 215 219 222 223 227 229 229 230 231 233 235 237 239 241 244 246 248 250 252 254 255 257 258 260 261 262 264 265 266 267 268 268 269 269 269 269 269 269 269 268 268 269 269 268 269 269
204 206 209 214 217 220 222 225 226 226 227 229 231 233 235 237 240 242 245 247 249 252 254 256 258 260 262 264 265 266 268 269 270 271 271 271 271 271 271 271 270 270 269 269 268 268 267 267 268
205 207 210 213 215 219 221 222 224 224 225 226 228 230 232 235 238 241 243 246 249 251 254 257 260 262 264 266 268 270 272 273 273 274 274 274 274 274 274 273 272 271 270 269 268 267 267 266 266
208 210 213 215 216 218 220 221 221 222 223 224 226 228 230 233 236 239 242 245 248 252 255 258 261 264 267 270 272 273 275 276 277 277 278 278 278 277 276 275 273 272 270 269 268 266 265 265 264
208 210 213 215 216 218 220 220 219 220 221 222 224 226 229 231 235 238 242 246 250 254 257 261 264 267 270 272 274 275 276 278 279 280 280 280 280 279 278 276 274 272 270 268 266 265 263 262 262
Height
5806 5811 5816 5821 5825 5830 5835 5841 5844 5847 5849 5853 5856 5859 5862 5865 5868 5872 5872 5872 5873 5874 5875 5876 5878 5879 5880 5880 5881 5881 5882 5882 5881 5881 5881 5881 5881 5880 5880 5879 5879 5878 5877 5877 5876 5875 5875 5875 5874
5798 5803 5808 5812 5816 5823 5831 5837 5839 5841 5844 5848 5852 5855 5858 5860 5863 5866 5867 5869 5870 5871 5873 5874 5875 5876 5877 5878 5879 5879 5879 5879 5879 5879 5879 5878 5878 5878 5877 5877 5876 5875 5875 5874 5873 5873 5872 5872 5871
5790 5794 5800 5804 5809 5818 5828 5832 5833 5835 5839 5844 5847 5850 5853 5857 5860 5862 5864 5866 5867 5868 5870 5871 5872 5874 5874 5875 5876 5876 5876 5876 5876 5876 5876 5876 5875 5875 5874 5874 5873 5873 5872 5871 5870 5870 5869 5869 5868
5781 5786 5791 5796 5803 5815 5822 5825 5826 5829 5834 5838 5842 5846 5849 5853 5856 5858 5860 5862 5864 5865 5867 5868 5869 5871 5872 5872 5873 5873 5873 5873 5873 5873 5873 5873 5872 5872 5871 5871 5870 5870 5869 5868 5867 5867 5866 5865 5865
5772 5777 5782 5788 5798 5809 5815 5817 5819 5823 5828 5833 5837 5841 5844 5848 5851 5854 5857 5858 5860 5862 5863 5865 5866 5867 5868 5869 5870 5870 5870 5870 5870 5870 5870 5869 5869 5869 5868 5867 5867 5866 5866 5865 5864 5863 5863 5862 5861
5763 5769 5776 5783 5794 5803 5808 5810 5813 5817 5823 5827 5832 5836 5839 5843 5847 5850 5852 5855 5857 5858 5860 5861 5862 5863 5864 5865 5866 5866 5866 5866 5866 5866 5866 5866 5866 5865 5865 5864 5864 5863 5862 5862 5861 5860 5859 5859 5858
5756 5763 5769 5778 5788 5795 5801 5803 5807 5811 5816 5821 5826 5830 5834 5838 5842 5845 5848 5850 5853 5855 5856 5857 5858 5859 5860 5861 5862 5862 5863 5863 5863 5863 5862 5862 5862 5862 5861 5861 5860 5860 5859 5858 5857 5857 5856 5855 5854
5748 5755 5762 5770 5780 5789 5794 5797 5800 5805 5810 5815 5820 5825 5829 5833 5837 5841 5844 5846 5848 5850 5852 5853 5854 5855 5856 5857 5858 5858 5859 5859 5859 5859 5859 5858 5858 5858 5857 5857 5857 5856 5855 5854 5854 5853 5852 5851 5850
5740 5747 5755 5766 5774 5781 5786 5790 5793 5798 5803 5808 5814 5820 5824 5828 5832 5836 5839 5842 5844 5845 5847 5848 5849 5850 5851 5852 5853 5854 5854 5855 5855 5855 5855 5855 5854 5854 5854 5853 5853 5852 5851 5851 5850 5849 5848 5847 5846
5730 5740 5752 5759 5766 5773 5778 5782 5787 5792 5797 5802 5808 5814 5818 5822 5827 5831 5834 5836 5838 5840 5842 5843 5844 5846 5847 5848 5848 5849 5850 5850 5851 5851 5851 5851 5850 5850 5850 5849 5849 5848 5847 5847 5846 5845 5844 5843 5842
5724 5735 5744 5750 5757 5764 5769 5775 5780 5785 5790 5796 5802 5808 5812 5817 5821 5825 5828 5831 5833 5835 5837 5838 5840 5841 5842 5843 5844 5845 5845 5846 5846 5846 5847 5847 5847 5846 5846 5846 5845 5844 5843 5843 5842 5841 5840 5839 5838
5719 5728 5734 5741 5748 5755 5761 5767 5773 5778 5784 5789 5795 5801 5806 5811 5815 5819 5822 5825 5827 5829 5832 5833 5835 5836 5837 5838 5839 5840 5841 5841 5841 5842 5842 5842 5842 5842 5842 5842 5841 5840 5839 5839 5838 5837 5836 5835 5834
5711 5719 5725 5732 5739 5746 5753 5759 5766 5772 5777 5783 5788 5794 5799 5804 5809 5812 5816 5819 5822 5824 5826 5828 5829 5830 5832 5833 5834 5835 5836 5836 5837 5837 5838 5838 5838 5838 5838 5837 5837 5836 5835 5834 5833 5832 5831 5830 5829
5703 5710 5716 5723 5730 5737 5745 5751 5759 5766 5770 5776 5781 5787 5792 5797 5802 5806 5810 5813 5816 5818 5820 5822 5823 5825 5827 5828 5829 5830 5830 5831 5832 5832 5833 5833 5833 5833 5833 5832 5832 5831 5830 5830 5829 5828 5827 5826 5824
5694 5701 5707 5715 5722 5730 5737 5744 5753 5759 5763 5768 5774 5780 5785 5790 5795 5800 5803 5806 5809 5812 5814 5816 5818 5820 5821 5823 5824 5824 5825 5826 5826 5827 5827 5827 5827 5827 5827 5827 5827 5826 5825 5824 5823 5822 5822 5820 5819
5685 5692 5700 5709 5716 5723 5731 5740 5746 5751 5756 5762 5767 5773 5778 5784 5788 5793 5797 5800 5803 5806 5808 5810 5812 5814 5815 5816 5817 5818 5819 5820 5821 5821 5822 5822 5822 5821 5821 5821 5821 5820 5819 5819 5818 5817 5816 5815 5813
5677 5686 5696 5704 5710 5716 5724 5733 5738 5744 5749 5755 5760 5765 5771 5777 5781 5786 5790 5793 5797 5799 5802 5804 5806 5808 5809 5810 5811 5812 5813 5814 5815 5815 5815 5815 5815 5815 5815 5815 5814 5814 5813 5812 5811 5810 5809 5808 5807
5676 5684 5691 5697 5704 5710 5717 5725 5731 5736 5742 5747 5752 5758 5764 5769 5774 5779 5783 5787 5790 5793 5795 5798 5799 5801 5802 5803 5804 5805 5807 5807 5808 5808 5808 5808 5808 5808 5808 5808 5807 5806 5806 5805 5804 5803 5802 5801 5800
5670 5677 5683 5690 5696 5703 5710 5716 5723 5729 5735 5740 5745 5751 5756 5762 5767 5771 5776 5780 5783 5786 5789 5791 5792 5794 5794 5796 5797 5798 5799 5799 5800 5800 5800 5800 5800 5800 5800 5800 5799 5799 5798 5797 5796 5795 5794 5793 5792
5663 5670 5676 5683 5689 5696 5703 5709 5716 5722 5728 5733 5738 5744 5749 5754 5759 5764 5768 5772 5776 5779 5781 5783 5785 5786 5787 5788 5789 5790 5790 5791 5792 5792 5792 5792 5792 5792 5791 5791 5790 5790 5789 5788 5788 5787 5785 5784 5783
5659 5666 5672 5678 5685 5691 5697 5703 5709 5715 5720 5726 5731 5736 5741 5747 5751 5756 5760 5764 5768 5771 5774 5776 5777 5778 5779 5780 5781 5781 5782 5783 5784 5784 5784 5783 5783 5782 5782 5782 5781 5780 5780 5779 5778 5777 5776 5775 5774
5655 5660 5666 5673 5679 5684 5691 5696 5702 5707 5713 5719 5724 5729 5734 5739 5744 5748 5752 5756 5759 5763 5765 5767 5769 5770 5771 5772 5772 5773 5774 5774 5775 5775 5774 5774 5773 5773 5772 5772 5771 5770 5770 5769 5768 5767 5765 5764 5763
5650 5656 5662 5668 5673 5680 5685 5690 5696 5701 5706 5712 5718 5723 5727 5732 5736 5740 5744 5747 5751 5754 5756 5758 5760 5761 5762 5763 5764 5764 5765 5765 5765 5765 5765 5764 5763 5763 5762 5761 5760 5759 5759 5758 5756 5756 5754 5753 5752
5646 5652 5658 5663 5668 5674 5679 5684 5690 5695 5700 5705 5710 5715 5720 5724 5728 5732 5735 5739 5742 5745 5747 5749 5751 5752 5753 5754 5754 5755 5755 5756 5755 5755 5755 5754 5753 5752 5751 5750 5749 5748 5747 5746 5745 5744 5743 5742 5741
5643 5649 5654 5658 5663 5669 5674 5678 5684 5689 5694 5698 5703 5708 5712 5716 5720 5723 5727 5730 5733 5735 5738 5739 5741 5742 5743 5744 5744 5745 5745 5745 5745 5744 5744 5743 5742 5741 5739 5737 5736 5735 5734 5733 5732 5731 5730 5729 5728
5640 5645 5651 5656 5660 5664 5668 5672 5678 5683 5687 5691 5696 5700 5704 5708 5712 5715 5718 5721 5724 5726 5728 5730 5731 5732 5733 5734 5734 5735 5735 5734 5734 5733 5732 5731 5730 5729 5727 5724 5723 5722 5720 5719 5718 5717 5716 5716 5716
5636 5641 5647 5652 5655 5659 5663 5668 5673 5676 5681 5685 5689 5693 5697 5701 5704 5707 5710 5712 5715 5717 5719 5720 5721 5723 5723 5724 5724 5724 5724 5723 5723 5721 5720 5719 5717 5715 5713 5710 5709 5707 5705 5704 5703 5702 5702 5702 5702
5634 5639 5643 5647 5651 5655 5659 5663 5667 5671 5675 5679 5682 5686 5690 5693 5696 5699 5702 5704 5706 5708 5710 5711 5713 5713 5714 5714 5714 5713 5712 5711 5710 5709 5707 5705 5703 5701 5698 5695 5693 5691 5689 5688 5687 5687 5687 5688 5688
5632 5636 5640 5644 5648 5652 5655 5661 5662 5666 5669 5673 5676 5680 5683 5686 5689 5692 5694 5696 5698 5700 5702 5703 5704 5704 5704 5704 5703 5703 5701 5700 5698 5696 5694 5691 5689 5685 5682 5679 5676 5674 5672 5671 5671 5671 5672 5673 5674
5629 5633 5637 5641 5645 5648 5651 5658 5657 5661 5664 5667 5671 5674 5677 5680 5682 5685 5687 5689 5691 5693 5694 5695 5695 5695 5695 5695 5694 5692 5691 5689 5687 5684 5681 5677 5674 5670 5666 5663 5659 5657 5656 5655 5656 5657 5658 5660 5661